FW6992 Weather Reports


Display with metric or nautical units.
time (UTC)temp
F
wind
direction
speed
MPH
gust
MPH
rain 1hr
in
rain 24hr
in
rain mn
in
humidity
%
barometer
mb
20260903035721 74 343 0.0 0.0 0.00 0.00 0.00 84 1020.4
20260903035217 74 343 0.0 0.0 0.00 0.00 0.00 84 1020.4
20260903034717 75 175 0.0 0.0 0.00 0.00 0.00 83 1020.6
20260903034212 75 175 0.0 0.0 0.00 0.00 0.00 83 1020.5
20260903033708 75 175 0.0 0.0 0.00 0.00 0.00 82 1020.6
20260903033208 75 233 0.0 0.0 0.00 0.00 0.00 82 1020.4
20260903032702 75 354 0.0 0.0 0.00 0.00 0.00 82 1020.6
20260903032158 75 354 0.0 0.0 0.00 0.00 0.00 82 1020.6
20260903031654 75 354 0.0 0.0 0.00 0.00 0.00 83 1020.6
20260903031153 75 207 0.0 0.0 0.00 0.00 0.00 83 1020.4
20260903030649 75 207 0.0 0.0 0.00 0.00 0.00 83 1020.8
20260903030144 75 207 0.0 0.0 0.00 0.00 0.00 83 1020.7
20260903025640 75 207 0.0 0.0 0.00 0.00 0.00 83 1020.8
20260903025135 75 207 0.0 0.0 0.00 0.00 0.00 83 1020.7
20260903024630 75 207 0.0 0.0 0.00 0.00 0.00 84 1021.0
20260903024129 75 207 0.0 0.0 0.00 0.00 0.00 83 1020.8
20260903023625 75 207 0.0 0.0 0.00 0.00 0.00 83 1020.9
20260903023125 75 214 0.0 0.0 0.00 0.00 0.00 83 1021.3
20260903022621 75 263 0.0 0.0 0.00 0.00 0.00 83 1021.1
20260903022120 75 263 0.0 0.0 0.00 0.00 0.00 83 1021.3
20260903021619 75 263 0.0 0.0 0.00 0.00 0.00 84 1021.1
20260903021114 75 238 0.0 0.0 0.00 0.00 0.00 84 1021.3
20260903020610 75 238 0.0 0.0 0.00 0.00 0.00 84 1021.2
20260903020110 0 0.0 0.0 0.00 0.00 0.00 1021.5
20260903015605 0 0.0 0.0 0.00 0.00 0.00 1021.6
20260903015101 76 134 0.0 0.0 0.00 0.00 0.00 78 1021.6
20260903014600 76 134 0.0 0.0 0.00 0.00 0.00 78 1021.7
20260903014100 76 134 0.0 0.0 0.00 0.00 0.00 78 1021.5
20260903013555 76 134 0.0 0.0 0.00 0.00 0.00 78 1021.3
20260903013050 76 134 0.0 0.0 0.00 0.00 0.00 78 1021.4
20260903012549 76 134 0.0 0.0 0.00 0.00 0.00 78 1021.4
20260903012048 76 134 0.0 0.0 0.00 0.00 0.00 78 1021.4
20260903011543 76 134 0.0 0.0 0.00 0.00 0.00 78 1021.2
20260903011037 76 134 0.0 0.0 0.00 0.00 0.00 78 1021.4
20260903010533 76 134 0.0 0.0 0.00 0.00 0.00 78 1021.5
20260903010031 76 134 0.0 0.0 0.00 0.00 0.00 78 1021.3
20260903005531 76 134 0.0 0.0 0.00 0.00 0.00 78 1021.4
20260903005027 76 71 0.0 1.0 0.00 0.00 0.00 78 1021.1
20260903004526 77 233 0.0 1.0 0.00 0.00 0.00 78 1021.2
20260903004022 77 69 0.0 0.0 0.00 0.00 0.00 78 1021.3
20260903003517 77 49 0.0 0.0 0.00 0.00 0.00 77 1021.0
20260903003013 77 330 0.0 1.0 0.00 0.00 0.00 78 1020.8
20260903002512 77 292 0.0 0.0 0.00 0.00 0.00 77 1020.9
20260903002008 77 121 1.0 1.0 0.00 0.00 0.00 76 1020.7
20260903001508 77 256 0.0 1.0 0.00 0.00 0.00 75 1020.6
20260903001007 78 150 0.0 0.0 0.00 0.00 0.00 75 1020.8
20260903000503 78 150 0.0 0.0 0.00 0.00 0.00 75 1021.0
20260903000001 78 150 0.0 0.0 0.00 0.00 0.00 75 1020.5
20260902235455 78 325 0.0 0.0 0.00 0.00 0.00 75 1020.8
20260902234950 78 162 0.0 0.0 0.00 0.00 0.00 75 1020.8
20260902234445 78 245 0.0 0.0 0.00 0.00 0.00 73 1021.1
20260902233944 79 276 0.0 1.0 0.00 0.00 0.00 72 1021.2
20260902233438 79 249 2.0 2.0 0.00 0.00 0.00 72 1021.4
20260902232938 79 150 0.0 1.0 0.00 0.00 0.00 72 1021.2
20260902232432 79 238 0.0 1.0 0.00 0.00 0.00 71 1021.5
20260902231932 80 336 1.0 2.0 0.00 0.00 0.00 70 1021.3
20260902231427 80 159 1.0 2.0 0.00 0.00 0.00 69 1021.4
20260902230922 80 135 0.0 2.0 0.00 0.00 0.00 68 1021.3
20260902230422 81 131 0.0 2.0 0.00 0.00 0.00 68 1021.2
20260902225922 81 290 0.0 1.0 0.00 0.00 0.00 68 1021.3
20260902225417 81 156 0.0 1.0 0.00 0.00 0.00 67 1021.2
20260902224915 81 277 0.0 1.0 0.00 0.00 0.00 68 1021.2
20260902224409 82 222 2.0 2.0 0.00 0.00 0.00 67 1021.1
20260902223907 82 153 0.0 1.0 0.00 0.00 0.00 67 1021.5
20260902223406 82 251 0.0 0.0 0.00 0.00 0.00 67 1021.6
20260902222901 82 330 0.0 0.0 0.00 0.00 0.00 66 1021.4
20260902222359 82 277 0.0 2.0 0.00 0.00 0.00 65 1021.3
20260902221859 83 246 1.0 2.0 0.00 0.00 0.00 65 1021.6
20260902221359 82 77 0.0 2.0 0.00 0.00 0.00 64 1021.1
20260902220854 82 330 0.0 2.0 0.00 0.00 0.00 65 1021.0
20260902220354 82 53 0.0 2.0 0.00 0.00 0.00 65 1021.3
20260902215850 82 96 0.0 0.0 0.00 0.00 0.00 64 1021.8
20260902215350 82 202 2.0 2.0 0.00 0.00 0.00 63 1021.6
20260902214846 82 171 0.0 1.0 0.00 0.00 0.00 62 1021.2
20260902214344 81 147 0.0 2.0 0.00 0.00 0.00 64 1021.2
20260902213839 80 30 0.0 1.0 0.00 0.00 0.00 65 1021.5
20260902213336 80 260 0.0 2.0 0.00 0.00 0.00 65 1021.5
20260902212834 81 267 0.0 1.0 0.00 0.00 0.00 64 1021.4
20260902212331 81 160 2.0 3.0 0.00 0.00 0.00 62 1020.8
20260902211827 82 239 1.0 4.0 0.00 0.00 0.00 58 1020.8
20260902211322 83 102 1.0 3.0 0.00 0.00 0.00 56 1020.7
20260902210818 84 34 2.0 3.0 0.00 0.00 0.00 56 1020.5
20260902210317 85 112 0.0 5.0 0.00 0.00 0.00 54 1020.5
20260902205815 86 64 2.0 10.0 0.00 0.00 0.00 52 1020.8
20260902205316 90 79 3.0 3.0 0.00 0.00 0.00 50 1021.0
20260902204811 91 318 0.0 1.0 0.00 0.00 0.00 53 1020.3
20260902204306 93 322 0.0 1.0 0.00 0.00 0.00 51 1020.3
20260902203801 93 184 0.0 0.0 0.00 0.00 0.00 51 1020.3
20260902203256 92 346 0.0 2.0 0.00 0.00 0.00 50 1020.4
20260902202751 93 290 0.0 1.0 0.00 0.00 0.00 48 1020.1
20260902202248 93 263 0.0 0.0 0.00 0.00 0.00 49 1020.1
20260902201744 93 110 0.0 0.0 0.00 0.00 0.00 47 1019.7
20260902201243 94 301 1.0 1.0 0.00 0.00 0.00 47 1020.0
20260902200738 96 345 0.0 0.0 0.00 0.00 0.00 44 1019.9
20260902200234 97 288 1.0 1.0 0.00 0.00 0.00 43 1020.1
20260902195729 98 262 2.0 2.0 0.00 0.00 0.00 42 1019.9
20260902195228 98 227 0.0 1.0 0.00 0.00 0.00 43 1019.8
20260902194728 98 245 0.0 0.0 0.00 0.00 0.00 43 1020.0
20260902194223 98 74 0.0 0.0 0.00 0.00 0.00 39 1019.7
20260902193719 98 276 0.0 1.0 0.00 0.00 0.00 41 1019.6
20260902193214 98 184 0.0 1.0 0.00 0.00 0.00 42 1019.6
20260902192712 99 226 0.0 1.0 0.00 0.00 0.00 42 1019.7
20260902192206 99 343 0.0 0.0 0.00 0.00 0.00 40 1019.7
20260902191701 99 251 0.0 1.0 0.00 0.00 0.00 42 1019.7
20260902191201 98 249 0.0 1.0 0.00 0.00 0.00 42 1019.9
20260902190656 98 347 0.0 0.0 0.00 0.00 0.00 40 1020.0
20260902190151 98 261 0.0 1.0 0.00 0.00 0.00 41 1020.3
20260902185647 97 227 1.0 2.0 0.00 0.00 0.00 43 1020.1
20260902185143 97 227 1.0 2.0 0.00 0.00 0.00 43 1020.2
20260902184643 97 227 1.0 2.0 0.00 0.00 0.00 43 1020.3
20260902184139 97 227 1.0 2.0 0.00 0.00 0.00 43 1020.4
20260902183635 97 227 1.0 2.0 0.00 0.00 0.00 43 1020.5
20260902183131 97 177 2.0 2.0 0.00 0.00 0.00 42 1020.5
20260902182627 99 126 2.0 3.0 0.00 0.00 0.00 41 1020.8
20260902182123 98 290 0.0 2.0 0.00 0.00 0.00 41 1020.5
20260902181619 97 239 2.0 2.0 0.00 0.00 0.00 43 1020.8
20260902181119 96 304 0.0 1.0 0.00 0.00 0.00 44 1020.8
20260902180618 96 304 0.0 1.0 0.00 0.00 0.00 44 1020.9
20260902180115 96 232 1.0 2.0 0.00 0.00 0.00 46 1021.0
20260902175614 96 267 0.0 0.0 0.00 0.00 0.00 45 1020.9
20260902175110 96 128 2.0 2.0 0.00 0.00 0.00 43 1021.0
20260902174606 95 284 2.0 2.0 0.00 0.00 0.00 47 1021.0
20260902174102 95 185 0.0 3.0 0.00 0.00 0.00 44 1020.9
20260902173601 96 96 0.0 1.0 0.00 0.00 0.00 44 1020.9
20260902173057 96 138 0.0 1.0 0.00 0.00 0.00 48 1020.9
20260902172556 95 251 2.0 2.0 0.00 0.00 0.00 50 1021.0
20260902172051 94 239 0.0 3.0 0.00 0.00 0.00 51 1021.1
20260902171547 94 323 0.0 0.0 0.00 0.00 0.00 46 1021.0
20260902171043 94 135 0.0 2.0 0.00 0.00 0.00 46 1021.1
20260902170538 94 312 2.0 2.0 0.00 0.00 0.00 46 1021.2
20260902170034 93 276 0.0 2.0 0.00 0.00 0.00 51 1021.2
20260902165533 93 128 0.0 1.0 0.00 0.00 0.00 46 1021.5
20260902165033 93 128 0.0 1.0 0.00 0.00 0.00 46 1021.5
20260902164529 93 128 0.0 1.0 0.00 0.00 0.00 46 1021.2
20260902164027 93 128 0.0 1.0 0.00 0.00 0.00 46 1021.4
20260902163524 93 26 0.0 0.0 0.00 0.00 0.00 48 1021.8
20260902163021 93 26 0.0 0.0 0.00 0.00 0.00 48 1021.4
20260902162515 93 290 0.0 0.0 0.00 0.00 0.00 48 1021.5
20260902162011 93 283 0.0 1.0 0.00 0.00 0.00 47 1021.6
20260902161505 93 261 0.0 0.0 0.00 0.00 0.00 49 1021.5
20260902161001 92 202 2.0 2.0 0.00 0.00 0.00 46 1021.4
20260902160457 92 202 2.0 2.0 0.00 0.00 0.00 46 1021.5
20260902155955 92 202 2.0 2.0 0.00 0.00 0.00 46 1021.6
20260902155451 93 269 0.0 2.0 0.00 0.00 0.00 48 1021.8
20260902154945 94 71 0.0 0.0 0.00 0.00 0.00 46 1021.6
20260902154440 94 263 0.0 0.0 0.00 0.00 0.00 48 1021.7
20260902153940 93 3 0.0 0.0 0.00 0.00 0.00 47 1021.7
20260902153438 94 263 0.0 1.0 0.00 0.00 0.00 48 1021.6
20260902152934 94 134 0.0 0.0 0.00 0.00 0.00 49 1021.6
20260902152430 93 131 0.0 1.0 0.00 0.00 0.00 48 1021.6
20260902151925 91 249 2.0 2.0 0.00 0.00 0.00 53 1021.6
20260902151421 91 249 2.0 2.0 0.00 0.00 0.00 53 1021.7
20260902150920 91 249 2.0 2.0 0.00 0.00 0.00 53 1021.6
20260902150417 91 263 0.0 1.0 0.00 0.00 0.00 53 1021.9
20260902145916 90 311 1.0 1.0 0.00 0.00 0.00 54 1021.8
20260902145412 88 110 0.0 1.0 0.00 0.00 0.00 57 1022.0
20260902144906 87 239 0.0 2.0 0.00 0.00 0.00 57 1021.8
20260902144402 87 84 0.0 1.0 0.00 0.00 0.00 59 1021.7
20260902143856 87 163 0.0 2.0 0.00 0.00 0.00 58 1022.0
20260902143351 87 334 0.0 1.0 0.00 0.00 0.00 60 1021.9
20260902142847 86 78 0.0 1.0 0.00 0.00 0.00 60 1021.9
20260902142344 86 290 0.0 0.0 0.00 0.00 0.00 61 1021.8
20260902141844 86 263 0.0 0.0 0.00 0.00 0.00 63 1021.9
20260902141339 85 223 0.0 0.0 0.00 0.00 0.00 61 1021.8
20260902140838 85 223 0.0 0.0 0.00 0.00 0.00 61 1021.7
20260902140334 85 194 0.0 0.0 0.00 0.00 0.00 67 1021.8
20260902135833 85 194 0.0 0.0 0.00 0.00 0.00 65 1021.9
20260902135329 85 194 0.0 0.0 0.00 0.00 0.00 65 1021.7
20260902134828 86 238 0.0 0.0 0.00 0.00 0.00 64 1021.6
20260902134324 86 251 0.0 0.0 0.00 0.00 0.00 63 1021.5
20260902133819 85 226 0.0 0.0 0.00 0.00 0.00 63 1021.8
20260902133319 85 226 0.0 0.0 0.00 0.00 0.00 63 1021.8
20260902132814 85 336 0.0 0.0 0.00 0.00 0.00 63 1021.7
20260902132309 85 336 0.0 0.0 0.00 0.00 0.00 63 1021.5
20260902131805 85 336 0.0 0.0 0.00 0.00 0.00 63 1021.5
20260902131301 85 336 0.0 0.0 0.00 0.00 0.00 63 1021.4
20260902130801 86 233 0.0 0.0 0.00 0.00 0.00 62 1021.4
20260902130257 86 233 0.0 0.0 0.00 0.00 0.00 62 1021.5
20260902125752 85 233 0.0 0.0 0.00 0.00 0.00 66 1021.5
20260902125248 84 238 0.0 0.0 0.00 0.00 0.00 72 1021.5
20260902124744 82 109 2.0 2.0 0.00 0.00 0.00 71 1021.5
20260902124239 81 318 0.0 0.0 0.00 0.00 0.00 73 1021.4
20260902123734 80 73 1.0 1.0 0.00 0.00 0.00 76 1021.5
20260902123231 79 233 0.0 1.0 0.00 0.00 0.00 75 1021.4
20260902122729 78 248 0.0 1.0 0.00 0.00 0.00 78 1021.5
20260902122225 77 163 0.0 0.0 0.00 0.00 0.00 81 1021.5
20260902121720 77 251 0.0 0.0 0.00 0.00 0.00 81 1021.3
20260902121215 76 163 0.0 1.0 0.00 0.00 0.00 81 1021.7
20260902120711 76 336 0.0 0.0 0.00 0.00 0.00 82 1021.5
20260902120207 75 221 0.0 0.0 0.00 0.00 0.00 83 1021.6
20260902115707 75 110 0.0 0.0 0.00 0.00 0.00 84 1021.6
20260902115203 75 156 0.0 0.0 0.00 0.00 0.00 85 1021.3
20260902114659 75 251 0.0 0.0 0.00 0.00 0.00 86 1021.6
20260902114154 75 264 0.0 1.0 0.00 0.00 0.00 87 1021.4
20260902113649 74 263 0.0 0.0 0.00 0.00 0.00 87 1021.4
20260902113143 74 263 0.0 1.0 0.00 0.00 0.00 87 1021.1
20260902112638 74 219 0.0 0.0 0.00 0.00 0.00 87 1021.4
20260902112136 74 123 0.0 2.0 0.00 0.00 0.00 86 1021.3
20260902111636 74 175 0.0 0.0 0.00 0.00 0.00 86 1021.4
20260902111132 74 53 0.0 0.0 0.00 0.00 0.00 86 1021.3
20260902110627 74 21 0.0 0.0 0.00 0.00 0.00 86 1021.2
20260902110124 74 226 0.0 0.0 0.00 0.00 0.00 87 1021.0
20260902105622 74 343 0.0 0.0 0.00 0.00 0.00 86 1021.1
20260902105118 74 314 0.0 1.0 0.00 0.00 0.00 85 1021.1
20260902104613 74 250 0.0 1.0 0.00 0.00 0.00 85 1021.3
20260902104109 75 256 0.0 0.0 0.00 0.00 0.00 84 1021.0
20260902103608 75 249 0.0 0.0 0.00 0.00 0.00 83 1021.1
20260902103104 75 65 0.0 1.0 0.00 0.00 0.00 83 1021.3
20260902102555 75 78 0.0 1.0 0.00 0.00 0.00 83 1021.1
20260902102051 75 162 0.0 0.0 0.00 0.00 0.00 83 1020.9
20260902101547 75 283 1.0 2.0 0.00 0.00 0.00 83 1020.9
20260902101046 75 143 1.0 2.0 0.00 0.00 0.00 82 1020.8
20260902100546 75 101 1.0 2.0 0.00 0.00 0.00 81 1020.9
20260902100041 75 336 0.0 0.0 0.00 0.00 0.00 82 1020.7
20260902095539 75 310 0.0 2.0 0.00 0.00 0.00 83 1020.6
20260902095038 75 178 0.0 1.0 0.00 0.00 0.00 82 1020.6
20260902094534 75 313 0.0 0.0 0.00 0.00 0.00 84 1020.7
20260902094030 75 156 0.0 1.0 0.00 0.00 0.00 84 1020.6
20260902093525 75 6 0.0 1.0 0.00 0.00 0.00 85 1020.5
20260902093024 75 31 0.0 0.0 0.00 0.00 0.00 85 1020.8
20260902092520 75 198 0.0 1.0 0.00 0.00 0.00 84 1020.8
20260902092014 75 263 0.0 1.0 0.00 0.00 0.00 83 1020.6
20260902091510 75 284 0.0 0.0 0.00 0.00 0.00 84 1020.5
20260902091006 75 151 0.0 1.0 0.00 0.00 0.00 83 1020.7
20260902090501 75 314 0.0 1.0 0.00 0.00 0.00 83 1020.7
20260902090000 75 20 0.0 0.0 0.00 0.00 0.00 83 1020.7
20260902085455 75 305 0.0 0.0 0.00 0.00 0.00 83 1020.6
20260902084950 75 245 0.0 1.0 0.00 0.00 0.00 83 1020.5
20260902084447 75 214 0.0 0.0 0.00 0.00 0.00 83 1020.5
20260902083942 75 175 0.0 2.0 0.00 0.00 0.00 83 1020.6
20260902083441 75 256 0.0 0.0 0.00 0.00 0.00 83 1020.7
20260902082936 75 334 1.0 2.0 0.00 0.00 0.00 83 1020.6
20260902082432 75 3 0.0 0.0 0.00 0.00 0.00 82 1020.5
20260902081929 76 264 0.0 1.0 0.00 0.00 0.00 82 1020.5
20260902081425 76 185 0.0 0.0 0.00 0.00 0.00 81 1020.6
20260902080920 76 211 1.0 1.0 0.00 0.00 0.00 81 1020.4
20260902080416 76 318 0.0 1.0 0.00 0.00 0.00 80 1020.5
20260902075915 76 223 0.0 0.0 0.00 0.00 0.00 80 1020.5
20260902075412 76 220 0.0 0.0 0.00 0.00 0.00 80 1020.6
20260902074907 76 230 0.0 0.0 0.00 0.00 0.00 78 1020.4
20260902074403 76 230 0.0 0.0 0.00 0.00 0.00 78 1020.4
20260902073857 76 194 0.0 0.0 0.00 0.00 0.00 79 1020.3
20260902073353 76 194 0.0 0.0 0.00 0.00 0.00 79 1020.3
20260902072849 76 194 0.0 0.0 0.00 0.00 0.00 79 1020.6
20260902072344 76 194 0.0 0.0 0.00 0.00 0.00 78 1020.6
20260902071841 76 194 0.0 0.0 0.00 0.00 0.00 80 1020.4
20260902071340 76 194 0.0 0.0 0.00 0.00 0.00 81 1020.5
20260902070838 76 194 0.0 0.0 0.00 0.00 0.00 83 1020.6
20260902070338 76 330 0.0 0.0 0.00 0.00 0.00 85 1020.5
20260902065836 76 46 0.0 0.0 0.00 0.00 0.00 85 1020.4
20260902065332 76 251 0.0 0.0 0.00 0.00 0.00 85 1020.7
20260902064827 76 251 0.0 0.0 0.00 0.00 0.00 84 1020.7
20260902064323 76 132 0.0 0.0 0.00 0.00 0.00 83 1020.6
20260902063818 76 178 0.0 1.0 0.00 0.00 0.00 83 1020.5
20260902063312 76 354 0.0 0.0 0.00 0.00 0.00 80 1020.6
20260902062807 77 330 0.0 0.0 0.00 0.00 0.00 79 1020.6
20260902062305 77 245 0.0 0.0 0.00 0.00 0.00 79 1020.7
20260902061802 77 245 0.0 0.0 0.00 0.00 0.00 79 1020.5
20260902061256 77 245 0.0 0.0 0.00 0.00 0.00 79 1020.8
20260902060754 77 245 0.0 0.0 0.00 0.00 0.00 79 1020.8
20260902060248 77 245 0.0 0.0 0.00 0.00 0.00 79 1020.9
20260902055743 77 305 0.0 0.0 0.00 0.00 0.00 78 1020.9
20260902055241 77 305 0.0 0.0 0.00 0.00 0.00 78 1020.8
20260902054741 77 305 0.0 0.0 0.00 0.00 0.00 78 1020.6
20260902054236 78 305 0.0 0.0 0.00 0.00 0.00 78 1021.0
20260902053732 78 138 0.0 0.0 0.00 0.00 0.00 77 1020.9
20260902053231 78 150 0.0 0.0 0.00 0.00 0.00 79 1020.7
20260902052730 78 171 0.0 0.0 0.00 0.00 0.00 77 1020.7
20260902052226 78 251 0.0 0.0 0.00 0.00 0.00 77 1020.8
20260902051725 78 251 0.0 0.0 0.00 0.00 0.00 76 1020.7
20260902051220 78 251 0.0 0.0 0.00 0.00 0.00 76 1020.9
20260902050715 78 251 0.0 0.0 0.00 0.00 0.00 76 1020.7
20260902050210 77 251 0.0 0.0 0.00 0.00 0.00 77 1020.7
20260902045710 77 251 0.0 0.0 0.00 0.00 0.00 79 1020.6
20260902045207 77 251 0.0 0.0 0.00 0.00 0.00 80 1020.5
20260902044701 77 251 0.0 0.0 0.00 0.00 0.00 82 1020.6
20260902044158 77 251 0.0 0.0 0.00 0.00 0.00 83 1020.4
20260902043652 77 330 0.0 0.0 0.00 0.00 0.00 83 1020.3
20260902043148 77 270 0.0 0.0 0.00 0.00 0.00 82 1020.3
20260902042647 78 274 0.0 1.0 0.00 0.00 0.00 82 1020.3
20260902042142 78 83 0.0 0.0 0.00 0.00 0.00 82 1020.1
20260902041642 78 357 0.0 0.0 0.00 0.00 0.00 82 1020.2
20260902041137 78 357 0.0 0.0 0.00 0.00 0.00 81 1020.0
20260902040636 78 357 0.0 1.0 0.00 0.00 0.00 83 1020.0
20260902040132 78 251 0.0 0.0 0.00 0.00 0.00 83 1020.0